This is the latest recevied weather packets stored in our database for station/object N5ATR. If no packets are shown the sender has not sent any weather packets the latest 10 day(s).
| Time | Temp. | Humidity | Pressure | Rain* | Wind** | Luminosity | Snow |
|---|---|---|---|---|---|---|---|
| 1788135086 | 27.22° C | 30% | 1021.9 hPa | 0 mm | - | 69 W/m² | - |
| 1788134783 | 27.22° C | 29% | 1021.5 hPa | 0 mm | - | 71 W/m² | - |
| 1788134483 | 27.22° C | 28% | 1021.9 hPa | 0 mm | - | 80 W/m² | - |
| 1788134182 | 27.22° C | 29% | 1022 hPa | 0 mm | - | 84 W/m² | - |
| 1788133876 | 27.22° C | 29% | 1022 hPa | 0 mm | - | 90 W/m² | - |
| 1788133571 | 27.78° C | 30% | 1021.8 hPa | 0 mm | - | 106 W/m² | - |
| 1788133267 | 27.78° C | 30% | 1022 hPa | 0 mm | - | 118 W/m² | - |
| 1788132962 | 27.78° C | 31% | 1021.8 hPa | 0 mm | - | 121 W/m² | - |
| 1788132658 | 27.78° C | 31% | 1021.9 hPa | 0 mm | - | 124 W/m² | - |
| 1788132354 | 27.78° C | 31% | 1021.7 hPa | 0 mm | - | 132 W/m² | - |
| 1788132049 | 28.33° C | 30% | 1021.9 hPa | 0 mm | - | 130 W/m² | - |
| 1788131745 | 27.78° C | 30% | 1021.7 hPa | 0 mm | - | 121 W/m² | - |
| 1788131444 | 28.33° C | 30% | 1021.4 hPa | 0 mm | - | 115 W/m² | - |
| 1788131140 | 28.89° C | 30% | 1021.7 hPa | 0 mm | - | 144 W/m² | - |
| 1788130835 | 29.44° C | 29% | 1021.3 hPa | 0 mm | - | 161 W/m² | - |
| 1788130530 | 30° C | 29% | 1021.7 hPa | 0 mm | - | 281 W/m² | - |
| 1788130230 | 29.44° C | 29% | 1021.7 hPa | 0 mm | - | 386 W/m² | - |
| 1788129928 | 28.89° C | 29% | 1021.5 hPa | 0 mm | - | 290 W/m² | - |
| 1788129625 | 28.89° C | 31% | 1021.7 hPa | 0 mm | - | 171 W/m² | - |
| 1788129322 | 30° C | 29% | 1021.3 hPa | 0 mm | - | 193 W/m² | - |
| 1788129021 | 30° C | 30% | 1021.9 hPa | 0 mm | - | 430 W/m² | - |
| 1788128716 | 29.44° C | 31% | 1021.8 hPa | 0 mm | - | 378 W/m² | - |
| 1788128412 | 30.56° C | 31% | 1021.8 hPa | 0 mm | - | 473 W/m² | - |
| 1788128108 | 30° C | 31% | 1022.2 hPa | 0 mm | - | 460 W/m² | - |
| 1788127804 | 30° C | 31% | 1022 hPa | 0 mm | - | 559 W/m² | - |
* Rain latest hour (hover to see other rain measurements)
** Current wind speed in m/s (hover to see current wind gust speed)